Date String (YYYY-MM-DD hh:mm:ss) UTC,Instrument flags,absolute air pressure of the measurement (hPa),sample flow rate (lpm),inlet stack bypass flow (lpm),air temperature of the measurement (°C),ambient temperature measured by the external sensor (°C),aerosol sample conditioner tube jacket temperature (°C),OPC LED temperature (°C),internal box temperature (°C),relative humidity of the measurement (%),span deviation,mass concentration of particles derived from Lorenz-Mie calculation of OPC scattering (μg/m³),mass concentration of particles derived from Lorenz-Mie calculation of OPC scattering (μg/m³),mass concentration of particles derived from Lorenz-Mie calculation of OPC scattering (μg/m³)
DateTimeUTC,F1_M11,P_M11,Q1_M11,Q2_M11,T1_M11,T2_M11,T3_M11,T4_M11,T5_M11,U1_M11,ZSPAN_M11,X0_M11,X2_M11,X1_M11
2024-04-11 08:00:00,SystemResetWarning,0833.9,5.01,000.00,025.1,024.3,000.0,033.7,027.0,016.9,0000.0,0005.00,0001.61,0001.10
2024-04-11 08:01:00,SystemResetWarning,0833.8,5.00,000.00,025.1,024.3,000.0,033.7,027.0,016.9,0000.0,0005.03,0001.62,0001.11
2024-04-11 08:02:00,SystemResetWarning,0833.9,4.99,000.00,025.1,024.3,000.0,033.7,027.0,016.8,0000.0,0005.00,0001.61,0001.11
2024-04-11 08:03:00,SystemResetWarning,0833.9,4.99,000.00,025.1,024.3,000.0,033.7,027.0,016.8,0000.0,0004.98,0001.59,0001.11
2024-04-11 08:04:00,SystemResetWarning,0833.9,5.01,000.00,025.0,024.3,000.0,033.6,026.9,016.8,0000.0,0004.71,0001.56,0001.11
2024-04-11 08:05:00,SystemResetWarning,0833.8,5.01,000.00,025.0,024.3,000.0,033.6,026.9,016.9,0000.0,0003.67,0001.58,0001.13
2024-04-11 08:06:00,SystemResetWarning,0833.9,4.99,000.00,025.0,024.3,000.0,033.6,026.9,016.8,0000.0,0003.70,0001.59,0001.15
2024-04-11 08:07:00,SystemResetWarning,0833.9,4.99,000.00,025.0,024.3,000.0,033.6,026.9,016.9,0000.0,0003.78,0001.60,0001.15
2024-04-11 08:08:00,SystemResetWarning,0833.9,5.00,000.00,025.0,024.3,000.0,033.6,026.9,016.8,0000.0,0003.73,0001.58,0001.15
2024-04-11 08:09:00,SystemResetWarning,0833.9,4.99,000.00,025.0,024.3,000.0,033.6,026.9,016.8,0000.0,0003.73,0001.58,0001.15
2024-04-11 08:10:00,SystemResetWarning,0833.9,5.01,000.00,025.0,024.3,000.0,033.6,026.9,016.9,0000.0,0003.84,0001.60,0001.15
2024-04-11 08:11:00,SystemResetWarning,0833.9,5.01,000.00,025.0,024.3,000.0,033.6,026.9,016.8,0000.0,0003.82,0001.58,0001.15
2024-04-11 08:12:00,SystemResetWarning,0833.8,5.01,000.00,025.0,024.2,000.0,033.6,026.9,016.8,0000.0,0003.77,0001.56,0001.13
2024-04-11 08:13:00,SystemResetWarning,0833.8,5.00,000.00,025.0,024.2,000.0,033.6,026.9,016.7,0000.0,0003.77,0001.56,0001.12
2024-04-11 08:14:00,SystemResetWarning,0833.8,5.00,000.00,025.0,024.2,000.0,033.6,026.9,016.7,0000.0,0003.74,0001.57,0001.12
2024-04-11 08:15:00,SystemResetWarning,0833.9,4.99,000.00,025.0,024.2,000.0,033.6,026.9,016.8,0000.0,0003.78,0001.58,0001.12
2024-04-11 08:16:00,SystemResetWarning,0833.8,4.99,000.00,025.0,024.2,000.0,033.6,026.9,016.7,0000.0,0003.83,0001.59,0001.11
2024-04-11 08:17:00,SystemResetWarning,0833.8,4.99,000.00,025.0,024.2,000.0,033.6,026.9,016.6,0000.0,0003.82,0001.57,0001.10
2024-04-11 08:18:00,SystemResetWarning,0833.7,5.00,000.00,025.0,024.2,000.0,033.6,026.9,016.6,0000.0,0004.06,0001.61,0001.09
2024-04-11 08:19:00,SystemResetWarning,0833.8,5.00,000.00,025.0,024.2,000.0,033.6,026.9,016.6,0000.0,0003.32,0001.58,0001.09
2024-04-11 08:20:00,SystemResetWarning,0833.8,5.01,000.00,025.0,024.2,000.0,033.6,026.9,016.6,0000.0,0003.41,0001.60,0001.08
2024-04-11 08:21:00,SystemResetWarning,0833.8,5.01,000.00,025.0,024.2,000.0,033.6,026.9,016.6,0000.0,0003.41,0001.63,0001.08
2024-04-11 08:22:00,SystemResetWarning,0833.8,5.01,000.00,025.0,024.2,000.0,033.6,026.9,016.6,0000.0,0003.39,0001.65,0001.07
2024-04-11 08:23:00,SystemResetWarning,0833.8,5.00,000.00,025.0,024.2,000.0,033.6,026.8,016.6,0000.0,0003.32,0001.61,0001.07
2024-04-11 08:24:00,SystemResetWarning,0833.8,5.00,000.00,025.0,024.2,000.0,033.6,026.8,016.7,0000.0,0004.17,0001.62,0001.06
2024-04-11 08:25:00,SystemResetWarning,0833.8,5.00,000.00,025.0,024.2,000.0,033.6,026.9,016.8,0000.0,0004.47,0001.66,0001.05
2024-04-11 08:26:00,SystemResetWarning,0833.7,5.00,000.00,025.0,024.2,000.0,033.6,026.9,016.8,0000.0,0004.58,0001.67,0001.06
2024-04-11 08:27:00,SystemResetWarning,0833.8,4.99,000.00,025.0,024.2,000.0,033.6,026.8,016.9,0000.0,0005.51,0001.65,0001.06
2024-04-11 08:28:00,SystemResetWarning,0833.8,5.00,000.00,025.0,024.2,000.0,033.6,026.8,016.9,0000.0,0005.96,0001.60,0001.04
2024-04-11 08:29:00,SystemResetWarning,0833.8,5.00,000.00,024.9,024.2,000.0,033.6,026.8,016.7,0000.0,0006.31,0001.58,0001.04
2024-04-11 08:30:00,SystemResetWarning,0833.8,4.99,000.00,024.9,024.2,000.0,033.6,026.8,016.7,0000.0,0005.75,0001.57,0001.05
2024-04-11 08:31:00,SystemResetWarning,0833.8,5.00,000.00,024.9,024.2,000.0,033.6,026.8,016.6,0000.0,0005.59,0001.55,0001.05
2024-04-11 08:32:00,SystemResetWarning,0833.8,5.00,000.00,024.9,024.2,000.0,033.6,026.8,016.7,0000.0,0005.81,0001.53,0001.05
2024-04-11 08:33:00,SystemResetWarning,0833.8,5.01,000.00,024.9,024.2,000.0,033.6,026.8,016.5,0000.0,0006.21,0001.52,0001.04
2024-04-11 08:34:00,SystemResetWarning,0833.8,5.00,000.00,024.9,024.2,000.0,033.5,026.8,016.5,0000.0,0006.30,0001.54,0001.04
2024-04-11 08:35:00,SystemResetWarning,0833.7,5.00,000.00,024.9,024.1,000.0,033.5,026.8,016.4,0000.0,0006.24,0001.53,0001.04
2024-04-11 08:36:00,SystemResetWarning,0833.8,4.99,000.00,024.9,024.1,000.0,033.5,026.8,016.4,0000.0,0005.97,0001.49,0001.03
2024-04-11 08:37:00,SystemResetWarning,0833.7,4.99,000.00,024.9,024.1,000.0,033.5,026.8,016.4,0000.0,0005.81,0001.44,0001.03
2024-04-11 08:38:00,SystemResetWarning,0833.8,5.00,000.00,024.9,024.1,000.0,033.5,026.8,016.4,0000.0,0005.55,0001.42,0001.02
2024-04-11 08:39:00,SystemResetWarning,0833.7,5.00,000.00,024.9,024.1,000.0,033.5,026.8,016.6,0000.0,0004.38,0001.42,0001.01
2024-04-11 08:40:00,SystemResetWarning,0833.7,5.01,000.00,024.9,024.1,000.0,033.5,026.8,016.6,0000.0,0003.80,0001.39,0001.01
2024-04-11 08:41:00,SystemResetWarning,0833.7,5.01,000.00,024.9,024.1,000.0,033.5,026.8,016.5,0000.0,0003.80,0001.39,0001.00
2024-04-11 08:42:00,SystemResetWarning,0833.7,4.99,000.00,024.9,024.1,000.0,033.5,026.8,016.6,0000.0,0003.85,0001.38,0000.99
2024-04-11 08:43:00,SystemResetWarning,0833.7,4.99,000.00,024.9,024.1,000.0,033.5,026.8,016.6,0000.0,0003.93,0001.40,0001.00
2024-04-11 08:44:00,SystemResetWarning,0833.7,5.00,000.00,024.9,024.1,000.0,033.5,026.8,016.5,0000.0,0003.21,0001.37,0001.00
2024-04-11 08:45:00,SystemResetWarning,0833.7,5.00,000.00,024.9,024.1,000.0,033.5,026.8,016.5,0000.0,0003.19,0001.38,0001.00
2024-04-11 08:46:00,SystemResetWarning,0833.8,5.00,000.00,024.9,024.1,000.0,033.5,026.8,016.4,0000.0,0003.13,0001.40,0001.01
2024-04-11 08:47:00,SystemResetWarning,0833.7,5.00,000.00,024.9,024.1,000.0,033.5,026.8,016.4,0000.0,0002.80,0001.44,0001.02
2024-04-11 08:48:00,SystemResetWarning,0833.7,5.00,000.00,024.9,024.1,000.0,033.5,026.8,016.4,0000.0,0002.85,0001.45,0001.02
2024-04-11 08:49:00,SystemResetWarning,0833.7,5.00,000.00,024.9,024.1,000.0,033.5,026.7,016.4,0000.0,0002.78,0001.44,0001.03
2024-04-11 08:50:00,SystemResetWarning,0833.7,5.00,000.00,024.9,024.1,000.0,033.5,026.7,016.3,0000.0,0002.81,0001.47,0001.04
2024-04-11 08:51:00,SystemResetWarning,0833.7,5.00,000.00,024.9,024.1,000.0,033.5,026.7,016.4,0000.0,0002.81,0001.49,0001.04
2024-04-11 08:52:00,SystemResetWarning,0833.7,5.00,000.00,024.8,024.1,000.0,033.5,026.7,016.4,0000.0,0002.69,0001.46,0001.03
2024-04-11 08:53:00,SystemResetWarning,0833.7,5.01,000.00,024.8,024.0,000.0,033.5,026.7,016.4,0000.0,0002.66,0001.46,0001.03
2024-04-11 08:54:00,SystemResetWarning,0833.7,5.01,000.00,024.8,024.0,000.0,033.5,026.7,016.3,0000.0,0002.69,0001.47,0001.02
2024-04-11 08:55:00,SystemResetWarning,0833.7,5.00,000.00,024.8,024.0,000.0,033.5,026.7,016.4,0000.0,0002.98,0001.51,0001.01
2024-04-11 08:56:00,SystemResetWarning,0833.7,4.99,000.00,024.8,024.0,000.0,033.5,026.7,016.4,0000.0,0003.06,0001.50,0001.00
2024-04-11 08:57:00,SystemResetWarning,0833.7,5.00,000.00,024.8,024.0,000.0,033.4,026.7,016.3,0000.0,0003.00,0001.51,0001.00
2024-04-11 08:58:00,SystemResetWarning,0833.7,5.00,000.00,024.8,024.0,000.0,033.4,026.7,016.3,0000.0,0002.85,0001.50,0001.00
2024-04-11 08:59:00,SystemResetWarning,0833.7,5.00,000.00,024.8,024.0,000.0,033.4,026.7,016.3,0000.0,0002.76,0001.47,0001.00
